TimeEDT,TemperatureF,Dew PointF,Humidity,Sea Level PressureIn,VisibilityMPH,Wind Direction,Wind SpeedMPH,Gust SpeedMPH,PrecipitationIn,Events,Conditions,WindDirDegrees,DateUTC
12:53 AM,48.0,45.0,89,30.00,10.0,Calm,Calm,-,0.01,,Clear,0,2013-10-01 04:53:00
1:53 AM,48.9,46.0,90,30.00,10.0,Calm,Calm,-,N/A,,Clear,0,2013-10-01 05:53:00
2:53 AM,46.9,45.0,93,30.00,6.0,Calm,Calm,-,N/A,,Clear,0,2013-10-01 06:53:00
3:53 AM,46.0,43.0,89,30.00,9.0,Calm,Calm,-,N/A,,Clear,0,2013-10-01 07:53:00
4:49 AM,46.4,44.6,93,30.00,7.0,SW,3.5,-,N/A,,Partly Cloudy,220,2013-10-01 08:49:00
4:53 AM,46.9,44.1,90,30.00,7.0,Calm,Calm,-,N/A,,Partly Cloudy,0,2013-10-01 08:53:00
5:53 AM,44.1,41.0,89,30.00,7.0,Calm,Calm,-,N/A,,Clear,0,2013-10-01 09:53:00
6:53 AM,44.1,41.0,89,30.02,8.0,Calm,Calm,-,N/A,,Clear,0,2013-10-01 10:53:00
7:53 AM,48.0,45.0,89,30.02,10.0,Calm,Calm,-,N/A,,Clear,0,2013-10-01 11:53:00
8:53 AM,57.0,51.1,81,30.03,10.0,Calm,Calm,-,N/A,,Clear,0,2013-10-01 12:53:00
9:53 AM,64.0,52.0,65,30.02,10.0,Calm,Calm,-,N/A,,Clear,0,2013-10-01 13:53:00
10:53 AM,70.0,51.1,51,30.00,10.0,WNW,4.6,-,N/A,,Clear,300,2013-10-01 14:53:00
11:53 AM,73.0,52.0,48,29.99,10.0,Variable,6.9,-,N/A,,Clear,0,2013-10-01 15:53:00
12:53 PM,75.0,52.0,44,29.96,10.0,NNW,6.9,-,N/A,,Clear,330,2013-10-01 16:53:00
1:53 PM,75.9,53.1,45,29.95,10.0,NW,8.1,-,N/A,,Clear,320,2013-10-01 17:53:00
2:53 PM,75.9,53.1,45,29.94,10.0,WNW,8.1,-,N/A,,Clear,290,2013-10-01 18:53:00
3:53 PM,75.9,52.0,43,29.93,10.0,WNW,3.5,-,N/A,,Clear,290,2013-10-01 19:53:00
4:53 PM,75.9,53.1,45,29.91,10.0,WNW,3.5,-,N/A,,Clear,290,2013-10-01 20:53:00
5:53 PM,69.1,57.9,68,29.92,9.0,Calm,Calm,-,N/A,,Clear,0,2013-10-01 21:53:00
6:53 PM,64.0,57.0,78,29.93,10.0,Calm,Calm,-,N/A,,Clear,0,2013-10-01 22:53:00
7:53 PM,61.0,55.9,83,29.94,9.0,Calm,Calm,-,N/A,,Clear,0,2013-10-01 23:53:00
8:53 PM,57.9,55.0,90,29.96,8.0,Calm,Calm,-,N/A,,Clear,0,2013-10-02 00:53:00
9:53 PM,57.0,54.0,89,29.96,7.0,WSW,4.6,-,N/A,,Clear,240,2013-10-02 01:53:00
10:53 PM,55.9,53.1,90,29.96,7.0,Calm,Calm,-,N/A,,Clear,0,2013-10-02 02:53:00
11:53 PM,55.0,52.0,89,29.96,6.0,SSW,3.5,-,N/A,,Clear,210,2013-10-02 03:53:00